Home > Weather > Itumbiara > Past weeks

Flag for Brazil Weather for the Past 2 Weeks in Itumbiara, Goiás, Brazil

Now
82 °F

Clear.


Feels Like: 81 °F
Forecast: N/A
Wind: 7 mph from South

Location: Goiania Aeroporto

Current Time: May 3, 2016 at 8:14:17 PM

Latest Report: May 3, 2016 at 7:00 PM


Visibility: 10 mi

Pressure: 30.07 "Hg

Humidity: 28%

Dew Point: 46 °F

Location of ItumbiaraLocation

Historic Weather in Itumbiara — Graph

°F

Itumbiara Temperature Yesterday

Maximum temperature yesterday: 90 °F (at 3:00 PM)
Minimum temperature yesterday: 59 °F (at 5:00 AM)
Average temperature yesterday: 74 °F

High & Low Weather Summary for the Past Weeks

 TemperatureHumidityPressure
High91 °F (Apr 23, 4:00 PM)94% (May 3, 4:00 AM)30.15 "Hg (May 3, 4:00 AM)
Low59 °F (Apr 28, 5:00 AM)22% (May 2, 4:00 PM)29.86 "Hg (Apr 25, 5:00 PM)
Average75 °F56%30.04 "Hg
* Reported Apr 18 7:00 PM — May 3 7:00 PM, Itumbiara, Weather by CustomWeather, © 2016

Note: Actual official high and low records may vary slightly from our data, if they occured in-between our weather recording intervals... More about our weather records

Advertising

Itumbiara Weather History for the Previous 24 Hours

Scroll right to see more
 ConditionsComfort  
Time TempWeatherWind HumidityBarometerVisibility
7:00 PM
Tue, May 3
82 °FClear.7 mph28%30.07 "Hg10 mi
6:00 PM84 °FClear.6 mph25%30.07 "Hg10 mi
5:00 PM88 °FSunny.8 mph24%30.04 "Hg10 mi
4:00 PM88 °FPassing clouds.6 mph25%30.04 "HgN/A
3:00 PM86 °FPassing clouds.3 mph29%30.04 "HgN/A
2:00 PM88 °FPassing clouds.3 mph27%30.07 "HgN/A
1:00 PM88 °FPassing clouds.6 mph29%30.09 "HgN/A
12:00 PM84 °FPassing clouds.2 mph35%30.12 "HgN/A
11:00 AM81 °FPassing clouds.No wind48%30.15 "HgN/A
10:00 AM77 °FSunny.3 mph51%30.15 "Hg10 mi
9:00 AM72 °FSunny.3 mph57%30.15 "Hg10 mi
8:00 AM66 °FSunny.No wind68%30.15 "Hg10 mi
7:00 AM59 °FSunny.2 mph88%30.12 "Hg10 mi
6:00 AM61 °FClear.No wind83%30.12 "Hg10 mi
5:00 AM61 °FClear.No wind88%30.09 "Hg10 mi
4:00 AM61 °FClear.No wind94%30.09 "Hg10 mi
3:00 AM64 °FClear.No wind73%30.09 "Hg10 mi
2:00 AM66 °FClear.5 mph68%30.09 "Hg10 mi
1:00 AM68 °FClear.3 mph64%30.12 "Hg10 mi
12:00 AM70 °FClear.No wind60%30.12 "Hg10 mi
11:00 PM
Mon, May 2
72 °FClear.3 mph53%30.12 "Hg10 mi
10:00 PM75 °FClear.3 mph44%30.12 "Hg10 mi
9:00 PM75 °FClear.5 mph47%30.09 "Hg10 mi
8:00 PM77 °FClear.No wind42%30.09 "Hg10 mi
Weather by CustomWeather, © 2016

See weather overviewHow to use our weather pages